[[{"header":{"parameterUnit":"m.s-1","parameterCategory":1,"la1":30.2991,"la2":30.254,"lo1":-89.0895,"lo2":-89.0444,"dy":0.0017,"dx":0.0017,"nx":28,"ny":28,"refTime":"2023-06-19T21:00:00:Z","depth":0,"parameterNumber":2,"parameterNumberName":"U-component_of_WINDS"},"data":[0,0,0,0,0,0,0,0,0,0,0,0,0,0,0,0,0,0,0,0,0,0,0,0,0,0,0,0,0,0,0,0,0,0,0,0,0,0,0,0,0,0,0,0,0,0,0,0,0,0,0,0,0,0,0,0,0,0,1.1983,1.1983,0,1.1976,1.1975,1.1975,1.2016,1.2017,1.2018,1.202,1.2011,1.2009,1.2008,0,0,0,0,0,0,0,0,0,0,0,0,0,1.2034,1.2033,1.1983,1.1983,1.1983,1.1976,1.1975,1.1975,1.2016,1.2017,1.2019,1.202,1.2011,1.201,1.2008,0,0,0,0,0,0,0,0,0,0,0,0,0,1.2018,1.2033,1.1983,1.2002,1.2004,1.1976,1.1975,1.1975,1.2016,1.2017,1.2019,1.2021,1.2012,1.201,1.2008,1.196,0,0,1.2002,1.2001,0,0,0,0,0,0,0,0,1.2019,1.2016,1.1999,1.2001,1.2003,1.1999,1.199,1.197,1.2015,1.2011,1.202,1.2022,1.2005,1.2004,1.1998,1.196,1.1959,1.2001,1.2,1.1999,1.1999,0,0,0,0,0,0,0,1.202,1.2017,1.198,1.1999,1.2001,1.2012,1.2012,1.1987,1.1998,1.2012,1.2014,1.2013,1.2006,1.2,1.1999,1.1959,1.2001,1.2,1.1998,1.1998,1.1884,1.1883,0,0,0,0,0,0,1.2018,1.2017,1.198,1.198,1.2015,1.201,1.2009,1.1998,1.1999,1.2,1.2012,1.2015,1.2003,1.2001,1.1998,1.1943,1.1999,1.1998,1.1996,1.1886,1.1884,1.1882,0,0,0,0,0,0,1.2019,1.2015,1.198,1.1999,1.1996,1.2007,1.1994,1.1997,1.1991,1.1999,1.2001,1.2003,1.2004,1.2001,1.197,1.1943,1.1997,1.1995,1.1888,1.1886,1.1883,1.1831,0,0,0,0,0,0,1.2021,1.2015,1.1995,1.1999,1.1995,1.1951,1.1992,1.1996,1.1987,1.1992,1.1991,1.1993,1.2005,1.1973,1.1968,1.1941,1.1993,1.1891,1.1887,1.1884,1.1835,1.1827,1.182,0,0,0,0,0,1.2022,1.198,1.1994,1.199,1.1971,1.1949,1.1947,1.1962,1.1985,1.1966,1.1973,1.1993,1.1948,1.1969,1.1964,1.1936,1.1892,1.1888,1.1884,1.1838,1.1829,1.182,0,0,0,0,0,0,1.1971,1.1981,1.1996,1.1954,1.1951,1.1956,1.1932,1.1951,1.194,1.1945,1.1965,1.1965,1.193,1.1931,1.1954,1.1892,1.1924,1.1919,1.1891,1.1882,1.1874,1.1873,1.1992,0,0,0,0,0,1.1956,1.1937,1.1947,1.1909,1.1907,1.192,1.1911,1.1924,1.1921,1.192,1.1923,1.192,1.1905,1.1895,1.1882,1.1838,1.1839,1.1817,1.181,1.1803,1.1797,1.1775,1.1765,1.1869,1.1869,1.1869,0,0,1.1922,1.1925,1.1911,1.1899,1.1897,1.1878,1.1918,1.1895,1.1881,1.1916,1.1886,1.189,1.1888,1.185,1.1834,1.185,1.177,1.1798,1.1793,1.179,1.177,1.176,1.1751,1.1866,1.1866,1.1867,0,0,1.1849,1.1851,1.1819,1.1819,1.1818,1.1828,1.1821,1.1825,1.1829,1.1801,1.1827,1.1812,1.1786,1.1784,1.1779,1.1714,1.1732,1.171,1.1668,1.1646,1.1638,1.1631,1.1606,1.1597,1.1705,1.1705,1.1705,0,1.1806,1.1778,1.1801,1.1777,1.1771,1.1805,1.1774,1.1773,1.1767,1.1763,1.1782,1.1753,1.1754,1.1717,1.1701,1.1698,1.169,1.1707,1.1638,1.1631,1.1624,1.1601,1.1592,1.1702,1.1702,1.1702,1.1703,0,1.1725,1.1706,1.1681,1.1677,1.1669,1.1642,1.1661,1.1651,1.1668,1.1676,1.1649,1.1653,1.1641,1.1635,1.165,1.1601,1.1611,1.1634,1.1666,1.1611,1.1589,1.158,1.1697,1.1698,1.1699,1.17,0,0,1.1612,1.1626,1.1616,1.1615,1.162,1.1606,1.1583,1.1574,1.1564,1.1562,1.1542,1.1523,1.1546,1.1541,1.1557,1.1539,1.1486,1.1564,1.1565,1.1547,1.1433,1.1412,1.1401,1.1502,1.15,1.1499,1.1432,0,1.1539,1.1498,1.1521,1.1476,1.1459,1.1496,1.1476,1.1478,1.1488,1.1476,1.1488,1.1472,1.1504,1.1502,1.1486,1.1496,1.1463,1.1502,1.1482,1.1481,1.1476,1.139,1.1367,1.1303,1.1424,1.1423,1.1422,0,1.1445,1.1441,1.1395,1.1408,1.1401,1.1382,1.1378,1.1367,1.1371,1.138,1.1378,1.14,1.1379,1.1416,1.1388,1.1414,1.1409,1.1413,1.1411,1.1405,1.1443,1.1378,1.1284,1.1272,1.1409,1.141,1.1411,0,1.1364,1.1348,1.1318,1.1318,1.1331,1.1317,1.1323,1.1329,1.1324,1.1321,1.1318,1.1313,1.1309,1.1306,1.1327,1.1352,1.1296,1.1334,1.1301,1.1301,1.1282,1.1282,1.1181,1.1287,1.1287,1.1287,1.1288,0,1.1276,1.1246,1.1282,1.1263,1.1232,1.1262,1.123,1.124,1.1247,1.1232,1.1266,1.1251,1.1282,1.1271,1.1288,1.1262,1.1261,1.1267,1.1271,1.1261,1.126,1.1253,1.1256,1.1285,1.1285,1.1286,1.1286,0,1.1175,1.1199,1.1169,1.1188,1.1192,1.1168,1.1184,1.1168,1.1184,1.1165,1.1162,1.1186,1.1176,1.1199,1.1191,1.1203,1.1165,1.1179,1.1163,1.1165,1.113,1.1131,1.1017,1.1003,1.1122,1.1121,1.112,0,1.1115,1.1093,1.1111,1.1104,1.1107,1.1096,1.1092,1.1123,1.1117,1.1124,1.1108,1.1101,1.1096,1.1079,1.1095,1.1091,1.1101,1.1063,1.11,1.1092,1.1097,1.1096,1.1093,1.1052,1.105,1.1049,1.1048,0,1.1004,1.1018,1.1011,1.1009,1.1004,1.1004,1.1006,1.0999,1.1032,1.1025,1.1016,1.1013,1.1008,1.1,1.1,1.1007,1.1032,1.1038,1.1029,1.1016,1.1006,1.1008,1.1136,1.1038,1.1039,1.104,1.104,1.1041,1.0918,1.0902,1.0912,1.0904,1.0911,1.0914,1.09,1.0917,1.091,1.0908,1.0929,1.0915,1.0926,1.093,1.0935,1.0925,1.0943,1.0931,1.0927,1.0923,1.0916,1.1013,1.0926,1.0927,1.0927,1.0927,1.0927,0,1.0806,1.0817,1.081,1.0813,1.0808,1.0839,1.0844,1.0837,1.0825,1.0834,1.083,1.0821,1.0816,1.0836,1.0834,1.0823,1.0835,1.0821,1.0819,1.082,1.0901,1.0907,1.0811,1.0811,1.0811,1.0812,1.0812,1.0812,1.0746,1.0719,1.0736,1.0714,1.0726,1.0714,1.0715,1.0718,1.0725,1.0714,1.0711,1.0725,1.0739,1.0739,1.0737,1.0743,1.0739,1.072,1.073,1.0803,1.0814,1.0825,1.083,1.072,1.072,1.0649,1.0648,1.0648]},{"header":{"parameterUnit":"m.s-1","parameterCategory":1,"la1":30.2991,"la2":30.254,"lo1":-89.0895,"lo2":-89.0444,"dy":0.0017,"dx":0.0017,"nx":28,"ny":28,"refTime":"2023-06-19T21:00:00:Z","depth":0,"parameterNumber":3,"parameterNumberName":"V-component_of_WINDS"},"data":[0,0,0,0,0,0,0,0,0,0,0,0,0,0,0,0,0,0,0,0,0,0,0,0,0,0,0,0,0,0,0,0,0,0,0,0,0,0,0,0,0,0,0,0,0,0,0,0,0,0,0,0,0,0,0,0,0,0,3.9245,3.9248,0,3.9477,3.9479,3.9482,3.957,3.957,3.9569,3.9569,3.9799,3.9805,3.9812,0,0,0,0,0,0,0,0,0,0,0,0,0,3.8874,3.8881,3.9245,3.9248,3.9251,3.9476,3.9479,3.9482,3.9571,3.957,3.9569,3.9568,3.9796,3.9804,3.9812,0,0,0,0,0,0,0,0,0,0,0,0,0,3.9063,3.8883,3.9244,3.9322,3.9331,3.9476,3.9479,3.9483,3.9571,3.957,3.9569,3.9568,3.9794,3.9804,3.9813,3.9895,0,0,3.9844,3.9849,0,0,0,0,0,0,0,0,3.9052,3.9077,3.9308,3.9317,3.9328,3.9494,3.9433,3.9621,3.9571,3.948,3.9569,3.9567,3.9697,3.9715,3.9761,3.9906,3.9916,3.9845,3.9851,3.9856,3.9859,0,0,0,0,0,0,0,3.9039,3.9067,3.9336,3.9311,3.9323,3.9344,3.937,3.9469,3.9591,3.9488,3.9495,3.9521,3.9703,3.9751,3.9767,3.9919,3.9845,3.9854,3.986,3.9864,4.0146,4.0148,0,0,0,0,0,0,3.9014,3.9056,3.9329,3.9343,3.9185,3.9351,3.938,3.9441,3.959,3.9612,3.9522,3.9524,3.9734,3.9755,3.9775,3.9884,3.9856,3.9865,3.9871,4.0145,4.0147,4.0148,0,0,0,0,0,0,3.9006,3.9038,3.932,3.9202,3.9239,3.9359,3.9427,3.9446,3.9495,3.9616,3.9638,3.9549,3.9734,3.9761,3.9866,3.9893,3.987,3.9879,4.0143,4.0145,4.0147,4.0099,0,0,0,0,0,0,3.8995,3.9034,3.9068,3.9202,3.9245,3.9408,3.9428,3.9452,3.9513,3.9519,3.9647,3.9668,3.9735,3.985,3.9876,3.9906,3.9887,4.0141,4.0144,4.0147,4.0099,4.0099,4.01,0,0,0,0,0,3.8981,3.9042,3.9069,3.9101,3.929,3.9409,3.9434,3.9513,3.9514,3.9549,3.9627,3.9664,3.9885,3.986,3.989,3.9924,4.014,4.0143,4.0147,4.0099,4.0099,4.01,0,0,0,0,0,0,3.8905,3.9061,3.9092,3.9199,3.9291,3.9424,3.947,3.951,3.9601,3.9603,3.9694,3.9722,3.982,3.9882,3.9852,4.0012,4.0015,4.0024,3.9969,3.997,3.9971,3.9955,3.9895,0,0,0,0,0,3.8901,3.8987,3.9118,3.92,3.9244,3.9349,3.9404,3.9457,3.9554,3.9593,3.9679,3.977,3.9861,3.9919,4.0008,4.0108,4.0138,4.0145,4.0146,4.0145,4.0153,4.0213,4.0218,4.0159,4.0159,4.0159,0,0,3.8893,3.8989,3.9037,3.9187,3.9264,3.935,3.9381,3.947,3.9535,3.9606,3.9712,3.9778,3.9886,3.9989,4.0039,4.0044,4.0176,4.015,4.0148,4.0156,4.0217,4.0222,4.0227,4.0161,4.0161,4.016,0,0,3.8923,3.9003,3.9082,3.916,3.9278,3.9347,3.9366,3.9494,3.9542,3.965,3.9706,3.9783,3.9937,4.0013,4.0071,4.0132,4.017,4.0158,4.0161,4.0219,4.0223,4.0228,4.0252,4.026,4.0165,4.0165,4.0165,0,3.8897,3.9032,3.9116,3.9205,3.9269,3.934,3.9421,3.9491,3.963,3.9673,3.9676,3.9873,3.9951,4.0074,4.009,4.0133,4.0158,4.0145,4.0216,4.0222,4.0227,4.0252,4.026,4.0163,4.0163,4.0163,4.0164,0,3.8996,3.9088,3.9137,3.9274,3.9344,3.9427,3.9524,3.9584,3.9631,3.9699,3.9809,3.9905,4.0017,4.005,4.0095,4.0181,4.0181,4.0199,4.0204,4.023,4.0254,4.0264,4.016,4.0161,4.0161,4.0162,0,0,3.8984,3.9169,3.9186,3.9251,3.9387,3.9459,3.9545,3.9658,3.9709,3.9802,3.9878,4.0007,4.0026,4.0092,4.0147,4.0196,4.0242,4.021,4.0213,4.0215,4.0345,4.0333,4.0342,4.0267,4.0269,4.0271,4.0337,0,3.9034,3.9195,3.9275,3.9401,3.9488,3.9557,3.9633,3.9724,3.979,3.9873,3.9945,4.0037,4.0054,4.0095,4.0147,4.0225,4.027,4.0221,4.0339,4.0342,4.0312,4.0355,4.0341,4.0399,4.0347,4.0349,4.035,0,3.9114,3.9212,3.9347,3.9476,3.9516,3.9582,3.9694,3.9771,3.9876,3.9921,3.9997,4.005,4.0143,4.0141,4.027,4.0236,4.0288,4.0334,4.0338,4.0354,4.0349,4.0374,4.0419,4.0428,4.0365,4.0364,4.0363,0,3.9095,3.926,3.9364,3.9416,3.9568,3.9614,3.9679,3.9783,3.9847,3.9942,3.9985,4.0088,4.0146,4.0225,4.0305,4.0295,4.0428,4.0431,4.0468,4.0467,4.0495,4.0492,4.0551,4.0524,4.0524,4.0523,4.0523,0,3.9144,3.9224,3.9358,3.9421,3.9514,3.9605,3.9693,3.9763,3.9856,3.9934,3.9998,4.0069,4.017,4.0254,4.0316,4.0416,4.044,4.0479,4.0496,4.0475,4.0471,4.0513,4.0512,4.0526,4.0525,4.0525,4.0524,0,3.9139,3.9231,3.9349,3.9485,3.9521,3.9584,3.97,3.9764,3.9834,3.9932,3.996,4.007,4.0172,4.026,4.0393,4.0436,4.0539,4.0557,4.0505,4.0514,4.0548,4.0545,4.0638,4.0656,4.0613,4.0613,4.0613,0,3.9165,3.923,3.9374,3.9433,3.9498,3.959,3.9657,3.9748,3.9814,3.994,3.9989,4.0097,4.0188,4.0348,4.0439,4.0542,4.0564,4.059,4.058,4.0559,4.0568,4.0565,4.0573,4.059,4.059,4.059,4.059,0,3.9203,3.9247,3.9341,3.9453,3.9531,3.9622,3.9715,3.9759,3.9867,3.9938,4.0045,4.0116,4.0255,4.0361,4.0475,4.054,4.0584,4.0593,4.0608,4.0589,4.0558,4.0578,4.0509,4.0591,4.0591,4.0591,4.0591,4.0591,3.9217,3.9279,3.9391,3.9495,3.9576,3.9662,3.973,3.9811,3.9903,4.0025,4.0072,4.0183,4.0287,4.0445,4.0511,4.0597,4.0604,4.0624,4.063,4.0634,4.0633,4.0542,4.0617,4.0618,4.0618,4.0618,4.0618,0,3.926,3.9337,3.9432,3.9562,3.9644,3.9681,3.9786,3.9852,3.9949,4.0044,4.0134,4.0258,4.0362,4.0462,4.0572,4.0622,4.0645,4.0648,4.0646,4.0661,4.0619,4.0597,4.0628,4.0628,4.0628,4.0628,4.0628,4.0628,3.9293,3.9401,3.9458,3.9607,3.9683,3.9794,3.9851,3.9931,4.0008,4.0145,4.0234,4.0299,4.0397,4.0514,4.0611,4.0638,4.0676,4.0674,4.0706,4.0665,4.0663,4.0662,4.0642,4.0681,4.0681,4.0742,4.0743,4.0743]}]]